Location: The Saddle
(36.8333°N, 80.3417°W)
Time: 06:46:13
(UTC-05:00)

Vanguard 3 - Pass Details

Date: 07 February 2026
Orbit: 507 x 3205 km, 33.3° (Epoch: 5 March)

Event Time Altitude Azimuth Distance (km) Brightness Sun altitude
Rises 18:54:12 0° 226° (SW) 3,560 11.4 -12.6°
Reaches altitude 10° 18:57:43 10° 211° (SSW) 2,256 10.0 -13.3°
Maximum altitude 19:01:25 21° 162° (SSE) 1,363 8.2 -14.1°
Enters shadow 19:03:21 15° 125° (SE) 1,510 8.1 -14.4°
